Time,TemperatureF,DewpointF,PressureIn,WindDirection,WindDirectionDegrees,WindSpeedMPH,WindSpeedGustMPH,Humidity,HourlyPrecipIn,Conditions,Clouds,dailyrainin,SolarRadiationWatts/m^2,SoftwareType,DateUTC
2013-02-28 00:01:00,24.0,18.0,-100.00,NE,35,5.0,17.0,76,0.00,,,0.00,0.000000,,2013-02-28 06:01:00,
2013-02-28 00:32:00,22.0,15.0,-100.00,NE,39,7.0,21.0,75,0.00,,,0.00,0.000000,,2013-02-28 06:32:00,
2013-02-28 00:42:00,22.0,15.0,-100.00,NE,39,7.0,21.0,75,0.00,,,0.00,0.000000,,2013-02-28 06:42:00,
2013-02-28 00:52:00,22.0,15.0,-100.00,NE,39,7.0,21.0,75,0.00,,,0.00,0.000000,,2013-02-28 06:52:00,
2013-02-28 01:01:00,22.0,15.0,-100.00,NE,39,7.0,21.0,75,0.00,,,0.00,0.000000,,2013-02-28 07:01:00,
2013-02-28 01:22:00,22.0,15.0,-100.00,NE,38,7.0,15.0,74,0.00,,,0.00,0.000000,,2013-02-28 07:22:00,
2013-02-28 01:32:00,22.0,15.0,-100.00,NE,38,7.0,15.0,74,0.00,,,0.00,0.000000,,2013-02-28 07:32:00,
2013-02-28 01:42:00,22.0,15.0,-100.00,NE,38,7.0,15.0,74,0.00,,,0.00,0.000000,,2013-02-28 07:42:00,
2013-02-28 01:52:00,22.0,15.0,-100.00,NE,38,7.0,15.0,74,0.00,,,0.00,0.000000,,2013-02-28 07:52:00,
2013-02-28 02:01:00,22.0,15.0,-100.00,NE,38,7.0,15.0,74,0.00,,,0.00,0.000000,,2013-02-28 08:01:00,
2013-02-28 02:32:00,21.0,15.0,-100.00,NE,37,5.0,15.0,76,0.00,,,0.00,0.000000,,2013-02-28 08:32:00,
2013-02-28 02:42:00,21.0,15.0,-100.00,NE,37,5.0,15.0,76,0.00,,,0.00,0.000000,,2013-02-28 08:42:00,
2013-02-28 02:53:00,21.0,15.0,-100.00,NE,37,5.0,15.0,76,0.00,,,0.00,0.000000,,2013-02-28 08:53:00,
2013-02-28 03:03:00,21.0,15.0,-100.00,NE,37,5.0,15.0,76,0.00,,,0.00,0.000000,,2013-02-28 09:03:00,
2013-02-28 03:32:00,20.0,14.0,-100.00,NE,41,5.0,14.0,77,0.00,,,0.00,0.000000,,2013-02-28 09:32:00,
2013-02-28 03:42:00,20.0,14.0,-100.00,NE,41,5.0,14.0,77,0.00,,,0.00,0.000000,,2013-02-28 09:42:00,
2013-02-28 03:52:00,20.0,14.0,-100.00,NE,41,5.0,14.0,77,0.00,,,0.00,0.000000,,2013-02-28 09:52:00,
2013-02-28 04:02:00,20.0,14.0,-100.00,NE,41,5.0,14.0,77,0.00,,,0.00,0.000000,,2013-02-28 10:02:00,
2013-02-28 04:32:00,20.0,14.0,-100.00,NNE,16,4.0,11.0,76,0.00,,,0.00,0.000000,,2013-02-28 10:32:00,
2013-02-28 04:42:00,20.0,14.0,-100.00,NNE,16,4.0,11.0,76,0.00,,,0.00,0.000000,,2013-02-28 10:42:00,
2013-02-28 04:52:00,20.0,14.0,-100.00,NNE,16,4.0,11.0,76,0.00,,,0.00,0.000000,,2013-02-28 10:52:00,
2013-02-28 05:01:00,20.0,14.0,-100.00,NNE,16,4.0,11.0,76,0.00,,,0.00,0.000000,,2013-02-28 11:01:00,
2013-02-28 05:32:00,19.0,12.0,-100.00,NNE,20,4.0,10.0,75,0.00,,,0.00,0.000000,,2013-02-28 11:32:00,
2013-02-28 05:42:00,19.0,12.0,-100.00,NNE,20,4.0,10.0,75,0.00,,,0.00,0.000000,,2013-02-28 11:42:00,
2013-02-28 05:52:00,19.0,12.0,-100.00,NNE,20,4.0,10.0,75,0.00,,,0.00,0.000000,,2013-02-28 11:52:00,
2013-02-28 06:01:00,19.0,12.0,-100.00,NNE,20,4.0,10.0,75,0.00,,,0.00,0.000000,,2013-02-28 12:01:00,
2013-02-28 06:32:00,18.0,12.0,-100.00,NNE,32,5.0,11.0,76,0.00,,,0.00,0.000000,,2013-02-28 12:32:00,
2013-02-28 06:42:00,18.0,12.0,-100.00,NNE,32,5.0,11.0,76,0.00,,,0.00,0.000000,,2013-02-28 12:42:00,
2013-02-28 06:52:00,18.0,12.0,-100.00,NNE,32,5.0,11.0,76,0.00,,,0.00,0.000000,,2013-02-28 12:52:00,
2013-02-28 07:02:00,18.0,12.0,-100.00,NNE,32,5.0,11.0,76,0.00,,,0.00,0.000000,,2013-02-28 13:02:00,
2013-02-28 07:32:00,18.0,11.0,-100.00,NE,46,7.0,15.0,73,0.00,,,0.00,2.000000,,2013-02-28 13:32:00,
2013-02-28 07:42:00,18.0,11.0,-100.00,NE,46,7.0,15.0,73,0.00,,,0.00,2.000000,,2013-02-28 13:42:00,
2013-02-28 07:52:00,18.0,11.0,-100.00,NE,46,7.0,15.0,73,0.00,,,0.00,2.000000,,2013-02-28 13:52:00,
2013-02-28 08:01:00,18.0,11.0,-100.00,NE,46,7.0,15.0,73,0.00,,,0.00,2.000000,,2013-02-28 14:01:00,
2013-02-28 08:22:00,19.0,12.0,-100.00,NNE,30,4.0,10.0,73,0.00,,,0.00,38.000000,,2013-02-28 14:22:00,
2013-02-28 08:32:00,19.0,12.0,-100.00,NNE,30,4.0,10.0,73,0.00,,,0.00,38.000000,,2013-02-28 14:32:00,
2013-02-28 08:42:00,19.0,12.0,-100.00,NNE,30,4.0,10.0,73,0.00,,,0.00,38.000000,,2013-02-28 14:42:00,
2013-02-28 08:52:00,19.0,12.0,-100.00,NNE,30,4.0,10.0,73,0.00,,,0.00,38.000000,,2013-02-28 14:52:00,
2013-02-28 09:02:00,19.0,12.0,-100.00,NNE,30,4.0,10.0,73,0.00,,,0.00,38.000000,,2013-02-28 15:02:00,
2013-02-28 09:32:00,19.0,11.0,-100.00,NNE,32,5.0,11.0,70,0.00,,,0.00,117.000000,,2013-02-28 15:32:00,
2013-02-28 09:42:00,19.0,11.0,-100.00,NNE,32,5.0,11.0,70,0.00,,,0.00,117.000000,,2013-02-28 15:42:00,
2013-02-28 09:52:00,19.0,11.0,-100.00,NNE,32,5.0,11.0,70,0.00,,,0.00,117.000000,,2013-02-28 15:52:00,
2013-02-28 10:01:00,19.0,11.0,-100.00,NNE,32,5.0,11.0,70,0.00,,,0.00,117.000000,,2013-02-28 16:01:00,
2013-02-28 10:22:00,23.0,11.0,-100.00,NE,55,5.0,13.0,60,0.00,,,0.00,305.000000,,2013-02-28 16:22:00,
2013-02-28 10:32:00,23.0,11.0,-100.00,NE,55,5.0,13.0,60,0.00,,,0.00,305.000000,,2013-02-28 16:32:00,
2013-02-28 10:43:00,23.0,11.0,-100.00,NE,55,5.0,13.0,60,0.00,,,0.00,305.000000,,2013-02-28 16:43:00,
2013-02-28 10:52:00,23.0,11.0,-100.00,NE,55,5.0,13.0,60,0.00,,,0.00,305.000000,,2013-02-28 16:52:00,
2013-02-28 11:01:00,23.0,11.0,-100.00,NE,55,5.0,13.0,60,0.00,,,0.00,305.000000,,2013-02-28 17:01:00,
2013-02-28 11:32:00,27.0,12.0,-100.00,NE,51,6.0,12.0,52,0.00,,,0.00,537.000000,,2013-02-28 17:32:00,
2013-02-28 11:42:00,27.0,12.0,-100.00,NE,51,6.0,12.0,52,0.00,,,0.00,537.000000,,2013-02-28 17:42:00,
2013-02-28 11:52:00,27.0,12.0,-100.00,NE,51,6.0,12.0,52,0.00,,,0.00,537.000000,,2013-02-28 17:52:00,
2013-02-28 12:02:00,27.0,12.0,-100.00,NE,51,6.0,12.0,52,0.00,,,0.00,537.000000,,2013-02-28 18:02:00,
2013-02-28 12:32:00,29.0,12.0,-100.00,NNE,26,5.0,11.0,48,0.00,,,0.00,643.000000,,2013-02-28 18:32:00,
2013-02-28 12:42:00,29.0,12.0,-100.00,NNE,26,5.0,11.0,48,0.00,,,0.00,643.000000,,2013-02-28 18:42:00,
2013-02-28 12:52:00,29.0,12.0,-100.00,NNE,26,5.0,11.0,48,0.00,,,0.00,643.000000,,2013-02-28 18:52:00,
2013-02-28 13:01:00,29.0,12.0,-100.00,NNE,26,5.0,11.0,48,0.00,,,0.00,643.000000,,2013-02-28 19:01:00,
2013-02-28 13:32:00,30.0,12.0,-100.00,NNE,16,6.0,12.0,46,0.00,,,0.00,567.000000,,2013-02-28 19:32:00,
2013-02-28 13:42:00,30.0,12.0,-100.00,NNE,16,6.0,12.0,46,0.00,,,0.00,567.000000,,2013-02-28 19:42:00,
2013-02-28 13:52:00,30.0,12.0,-100.00,NNE,16,6.0,12.0,46,0.00,,,0.00,567.000000,,2013-02-28 19:52:00,
2013-02-28 14:01:00,30.0,12.0,-100.00,NNE,16,6.0,12.0,46,0.00,,,0.00,567.000000,,2013-02-28 20:01:00,
2013-02-28 14:22:00,29.0,10.0,-100.00,NNE,31,5.0,12.0,45,0.00,,,0.00,390.000000,,2013-02-28 20:22:00,
2013-02-28 14:32:00,29.0,10.0,-100.00,NNE,31,5.0,12.0,45,0.00,,,0.00,390.000000,,2013-02-28 20:32:00,
2013-02-28 14:42:00,29.0,10.0,-100.00,NNE,31,5.0,12.0,45,0.00,,,0.00,390.000000,,2013-02-28 20:42:00,
2013-02-28 14:52:00,29.0,10.0,-100.00,NNE,31,5.0,12.0,45,0.00,,,0.00,390.000000,,2013-02-28 20:52:00,
2013-02-28 15:01:00,29.0,10.0,-100.00,NNE,31,5.0,12.0,45,0.00,,,0.00,390.000000,,2013-02-28 21:01:00,
2013-02-28 15:32:00,30.0,10.0,-100.00,NNE,23,5.0,15.0,42,0.00,,,0.00,265.000000,,2013-02-28 21:32:00,
2013-02-28 15:42:00,30.0,10.0,-100.00,NNE,23,5.0,15.0,42,0.00,,,0.00,265.000000,,2013-02-28 21:42:00,
2013-02-28 15:52:00,30.0,10.0,-100.00,NNE,23,5.0,15.0,42,0.00,,,0.00,265.000000,,2013-02-28 21:52:00,
2013-02-28 16:01:00,30.0,10.0,-100.00,NNE,23,5.0,15.0,42,0.00,,,0.00,265.000000,,2013-02-28 22:01:00,
2013-02-28 16:22:00,27.0,7.0,-100.00,NNE,33,5.0,14.0,42,0.00,,,0.00,301.000000,,2013-02-28 22:22:00,
2013-02-28 16:32:00,27.0,7.0,-100.00,NNE,33,5.0,14.0,42,0.00,,,0.00,301.000000,,2013-02-28 22:32:00,
2013-02-28 16:42:00,27.0,7.0,-100.00,NNE,33,5.0,14.0,42,0.00,,,0.00,301.000000,,2013-02-28 22:42:00,
2013-02-28 16:52:00,27.0,7.0,-100.00,NNE,33,5.0,14.0,42,0.00,,,0.00,301.000000,,2013-02-28 22:52:00,
2013-02-28 17:01:00,27.0,7.0,-100.00,NNE,33,5.0,14.0,42,0.00,,,0.00,301.000000,,2013-02-28 23:01:00,
2013-02-28 17:32:00,24.0,5.0,-100.00,NE,47,6.0,14.0,44,0.00,,,0.00,140.000000,,2013-02-28 23:32:00,
2013-02-28 17:42:00,24.0,5.0,-100.00,NE,47,6.0,14.0,44,0.00,,,0.00,140.000000,,2013-02-28 23:42:00,
2013-02-28 17:53:00,24.0,5.0,-100.00,NE,47,6.0,14.0,44,0.00,,,0.00,140.000000,,2013-02-28 23:53:00,
2013-02-28 18:01:00,24.0,5.0,-100.00,NE,47,6.0,14.0,44,0.00,,,0.00,140.000000,,2013-03-01 00:01:00,
2013-02-28 18:23:00,22.0,5.0,-100.00,NE,44,4.0,12.0,48,0.00,,,0.00,25.000000,,2013-03-01 00:23:00,
2013-02-28 18:32:00,22.0,5.0,-100.00,NE,44,4.0,12.0,48,0.00,,,0.00,25.000000,,2013-03-01 00:32:00,
2013-02-28 18:42:00,22.0,5.0,-100.00,NE,44,4.0,12.0,48,0.00,,,0.00,25.000000,,2013-03-01 00:42:00,
2013-02-28 18:52:00,22.0,5.0,-100.00,NE,44,4.0,12.0,48,0.00,,,0.00,25.000000,,2013-03-01 00:52:00,
2013-02-28 19:01:00,22.0,5.0,-100.00,NE,44,4.0,12.0,48,0.00,,,0.00,25.000000,,2013-03-01 01:01:00,
2013-02-28 19:32:00,20.0,5.0,-100.00,NE,46,4.0,9.0,52,0.00,,,0.00,0.000000,,2013-03-01 01:32:00,
2013-02-28 19:42:00,20.0,5.0,-100.00,NE,46,4.0,9.0,52,0.00,,,0.00,0.000000,,2013-03-01 01:42:00,
2013-02-28 19:52:00,20.0,5.0,-100.00,NE,46,4.0,9.0,52,0.00,,,0.00,0.000000,,2013-03-01 01:52:00,
2013-02-28 20:01:00,20.0,5.0,-100.00,NE,46,4.0,9.0,52,0.00,,,0.00,0.000000,,2013-03-01 02:01:00,
2013-02-28 20:22:00,19.0,4.0,-100.00,NE,56,6.0,11.0,52,0.00,,,0.00,0.000000,,2013-03-01 02:22:00,
2013-02-28 20:32:00,19.0,4.0,-100.00,NE,56,6.0,11.0,52,0.00,,,0.00,0.000000,,2013-03-01 02:32:00,
2013-02-28 20:42:00,19.0,4.0,-100.00,NE,56,6.0,11.0,52,0.00,,,0.00,0.000000,,2013-03-01 02:42:00,
2013-02-28 20:52:00,19.0,4.0,-100.00,NE,56,6.0,11.0,52,0.00,,,0.00,0.000000,,2013-03-01 02:52:00,
2013-02-28 21:01:00,19.0,4.0,-100.00,NE,56,6.0,11.0,52,0.00,,,0.00,0.000000,,2013-03-01 03:01:00,
2013-02-28 21:32:00,18.0,3.0,-100.00,NE,54,6.0,11.0,52,0.00,,,0.00,0.000000,,2013-03-01 03:32:00,
2013-02-28 21:42:00,18.0,3.0,-100.00,NE,54,6.0,11.0,52,0.00,,,0.00,0.000000,,2013-03-01 03:42:00,
2013-02-28 21:52:00,18.0,3.0,-100.00,NE,54,6.0,11.0,52,0.00,,,0.00,0.000000,,2013-03-01 03:52:00,
2013-02-28 22:01:00,18.0,3.0,-100.00,NE,54,6.0,11.0,52,0.00,,,0.00,0.000000,,2013-03-01 04:01:00,
2013-02-28 22:42:00,16.0,2.0,-100.00,NE,51,6.0,11.0,53,0.00,,,0.00,0.000000,,2013-03-01 04:42:00,
2013-02-28 22:52:00,16.0,2.0,-100.00,NE,51,6.0,11.0,53,0.00,,,0.00,0.000000,,2013-03-01 04:52:00,
2013-02-28 23:02:00,16.0,2.0,-100.00,NE,51,6.0,11.0,53,0.00,,,0.00,0.000000,,2013-03-01 05:02:00,
2013-02-28 23:33:00,14.0,1.0,-100.00,NE,53,5.0,10.0,56,0.00,,,0.00,0.000000,,2013-03-01 05:33:00,
2013-02-28 23:42:00,14.0,1.0,-100.00,NE,53,5.0,10.0,56,0.00,,,0.00,0.000000,,2013-03-01 05:42:00,
2013-02-28 23:53:00,14.0,1.0,-100.00,NE,53,5.0,10.0,56,0.00,,,0.00,0.000000,,2013-03-01 05:53:00,